Change the Weather History Date:

Wednesday, April 11, 2012

  Actual Average Record
Temperature  
Mean Temperature 47 °F -  
Max Temperature 57 °F 58 °F 68 °F (2011)
Min Temperature 37 °F 43 °F 32 °F (2003)
Degree Days  
Heating Degree Days 18    
Moisture  
Dew Point 36 °F    
Average Humidity 67    
Maximum Humidity 87    
Minimum Humidity 29    
Precipitation  
Precipitation 0.00 in - - ()
Sea Level Pressure  
Sea Level Pressure 29.44 in    
Wind  
Wind Speed 6 mph ()    
Max Wind Speed 15 mph    
Max Gust Speed -    
Visibility 7.3 miles    
Events Rain    
Averages and records for this station are not official NWS values.
T = Trace of Precipitation, MM = Missing Value Source: Averaged Metar Reports

Daily Weather History Graph

Daily Weather History Graph

Search for Another Location

Airport or City:

Trip Planner

Search our weather history database for the weather conditions in past years. The results will help you decide how hot, cold, wet, or windy it might be!

Date:

Astronomy

Apr. 11, 2012 Rise Set
Actual Time 6:14 AM BST 7:52 PM BST
Civil Twilight 5:39 AM BST 8:27 PM BST
Nautical Twilight 4:56 AM BST 9:10 PM BST
Astronomical Twilight 4:09 AM BST 9:58 PM BST
Moon 1:01 AM BST (4/11) 9:17 AM BST (4/11)
Length of Visible Light 14h 48m
Length of Day
13h 38m
Waning Gibbous, 72% of the Moon is Illuminated
Apr 11
Waning Gibbous
Apr 13
Last Quarter
Apr 21
New
Apr 29
First Quarter
May 6
Full

Hourly Weather History & Observations

Time (BST) Temp. Windchill Dew Point Humidity Pressure Visibility Wind Dir Wind Speed Gust Speed Precip Events Conditions
12:20 AM 42.8 °F 37.5 °F 35.6 °F 76% 29.36 in - WSW 9.2 mph - N/A   Clear
12:50 AM 42 °F - 37 °F 75% 29.37 in 19 mi SW 8.1 mph - -  
12:50 AM 41.0 °F 36.4 °F 35.6 °F 81% 29.36 in - SW 6.9 mph - N/A   Clear
1:20 AM 41.0 °F 37.1 °F 35.6 °F 81% 29.36 in 6.2 mi SW 5.8 mph - N/A   Unknown
1:50 AM 41.0 °F 38.0 °F 35.6 °F 81% 29.36 in 6.2 mi SW 4.6 mph - N/A   Unknown
2:20 AM 39.2 °F 35.9 °F 35.6 °F 87% 29.36 in 6.2 mi SW 4.6 mph - N/A   Unknown
2:50 AM 39.2 °F 35.9 °F 35.6 °F 87% 29.36 in - South 4.6 mph - N/A   Clear
3:20 AM 39.2 °F 35.9 °F 33.8 °F 81% 29.39 in - SW 4.6 mph - N/A   Clear
3:50 AM 39 °F - 36 °F 83% 29.38 in 16 mi SW 4.6 mph - -  
3:50 AM 39.2 °F 35.9 °F 35.6 °F 87% 29.39 in - SW 4.6 mph - N/A   Clear
4:20 AM 39.2 °F 35.9 °F 35.6 °F 87% 29.39 in - SSW 4.6 mph - N/A   Clear
4:50 AM 37.4 °F 34.9 °F 33.8 °F 87% 29.39 in - SSW 3.5 mph - N/A   Clear
5:20 AM 37.4 °F 33.8 °F 33.8 °F 87% 29.39 in - SSW 4.6 mph - N/A   Clear
5:50 AM 37.4 °F 32.8 °F 33.8 °F 87% 29.39 in - SSW 5.8 mph - N/A   Clear
6:20 AM 37.4 °F 33.8 °F 33.8 °F 87% 29.39 in - SSW 4.6 mph - N/A   Clear
6:50 AM 39 °F - 36 °F 84% 29.41 in 16 mi SSW 4.6 mph - -  
6:50 AM 37.4 °F 32.8 °F 33.8 °F 87% 29.39 in - SSW 5.8 mph - N/A   Clear
7:20 AM 39.2 °F 35.9 °F 35.6 °F 87% 29.42 in - SSW 4.6 mph - N/A   Clear
7:50 AM 41.0 °F 37.1 °F 37.4 °F 87% 29.42 in - West 5.8 mph - N/A   Clear
8:20 AM 42.8 °F 41.1 °F 37.4 °F 81% 29.42 in 6.2 mi Variable 3.5 mph - N/A   Partly Cloudy
8:50 AM 44.6 °F 41.4 °F 37.4 °F 76% 29.42 in 6.2 mi West 5.8 mph - N/A   Scattered Clouds
9:20 AM 46.4 °F 42.9 °F 39.2 °F 76% 29.42 in 6.2 mi WSW 6.9 mph - N/A   Scattered Clouds
9:50 AM 46 °F - 39 °F 67% 29.44 in 16 mi West 5.8 mph - - Rain Light Rain Showers
9:50 AM 46.4 °F 42.9 °F 39.2 °F 76% 29.44 in 6.2 mi West 6.9 mph - N/A Rain Light Rain Showers
10:20 AM 48.2 °F - 39.2 °F 71% 29.44 in 6.2 mi WSW 4.6 mph - N/A   Scattered Clouds
10:50 AM 50.0 °F - 39.2 °F 66% 29.44 in 6.2 mi West 6.9 mph - N/A   Scattered Clouds
11:20 AM 50.0 °F - 37.4 °F 62% 29.44 in 6.2 mi West 6.9 mph - N/A   Scattered Clouds
11:50 AM 51.8 °F - 37.4 °F 58% 29.44 in 6.2 mi WNW 5.8 mph - N/A   Scattered Clouds
12:20 PM 53.6 °F - 37.4 °F 54% 29.44 in 6.2 mi West 8.1 mph - N/A   Scattered Clouds
12:50 PM 53 °F - 34 °F 36% 29.45 in 25 mi West 9.2 mph - -   Scattered Clouds
12:50 PM 53.6 °F - 35.6 °F 51% 29.44 in 6.2 mi West 9.2 mph - N/A   Scattered Clouds
1:20 PM 55.4 °F - 35.6 °F 47% 29.44 in 6.2 mi NW 6.9 mph - N/A   Scattered Clouds
1:50 PM 55.4 °F - 33.8 °F 44% 29.44 in 6.2 mi WSW 8.1 mph - N/A   Scattered Clouds
2:20 PM 53.6 °F - 33.8 °F 47% 29.44 in 6.2 mi NW 9.2 mph - N/A   Scattered Clouds
2:50 PM 55.4 °F - 33.8 °F 44% 29.44 in 6.2 mi NW 8.1 mph - N/A   Scattered Clouds
3:20 PM 53.6 °F - 32.0 °F 44% 29.44 in 6.2 mi WNW 10.4 mph - N/A   Scattered Clouds
3:50 PM 56 °F - 33 °F 29% 29.46 in 28 mi NW 8.1 mph - -   Scattered Clouds
3:50 PM 55.4 °F - 32.0 °F 41% 29.44 in 6.2 mi NW 8.1 mph - N/A   Scattered Clouds
4:20 PM 55.4 °F - 32.0 °F 41% 29.44 in 6.2 mi West 9.2 mph - N/A   Scattered Clouds
4:50 PM 55.4 °F - 33.8 °F 44% 29.44 in 6.2 mi WNW 6.9 mph - N/A   Scattered Clouds
5:20 PM 57.2 °F - 33.8 °F 41% 29.44 in 6.2 mi WNW 6.9 mph - N/A   Scattered Clouds
5:50 PM 55.4 °F - 32.0 °F 41% 29.44 in 6.2 mi WNW 5.8 mph - N/A   Scattered Clouds
6:20 PM 53.6 °F - 33.8 °F 47% 29.47 in 6.2 mi NNW 15.0 mph - N/A   Scattered Clouds
6:50 PM 51 °F - 36 °F 46% 29.51 in 25 mi NW 11.5 mph - -   Partly Cloudy
6:50 PM 50.0 °F - 35.6 °F 58% 29.50 in 6.2 mi NW 11.5 mph - N/A   Scattered Clouds
7:20 PM 50.0 °F - 35.6 °F 58% 29.50 in 6.2 mi WNW 8.1 mph - N/A   Scattered Clouds
7:50 PM 48.2 °F - 37.4 °F 66% 29.50 in 6.2 mi WNW 5.8 mph - N/A   Scattered Clouds
8:20 PM 48.2 °F - 37.4 °F 66% 29.53 in 6.2 mi WNW 5.8 mph - N/A   Scattered Clouds
8:50 PM 48.2 °F - 39.2 °F 71% 29.53 in 6.2 mi WNW 4.6 mph - N/A   Scattered Clouds
9:20 PM 48.2 °F - 39.2 °F 71% 29.56 in 6.2 mi West 8.1 mph - N/A   Scattered Clouds
9:50 PM 47 °F - 39 °F 66% 29.56 in 22 mi West 4.6 mph - - Rain Rain
9:50 PM 46.4 °F 42.9 °F 39.2 °F 76% 29.56 in 6.2 mi West 6.9 mph - N/A   Scattered Clouds
10:20 PM 46.4 °F 42.9 °F 39.2 °F 76% 29.56 in 6.2 mi WNW 6.9 mph - N/A   Partly Cloudy
10:50 PM 46.4 °F 42.9 °F 39.2 °F 76% 29.56 in 6.2 mi WNW 6.9 mph - N/A   Scattered Clouds
11:20 PM 44.6 °F 40.7 °F 39.2 °F 81% 29.56 in 6.2 mi WNW 6.9 mph - N/A   Scattered Clouds
11:50 PM 42.8 °F 39.3 °F 37.4 °F 81% 29.56 in 6.2 mi West 5.8 mph - N/A   Partly Cloudy